period_start,C,m1,H,J0,J1,J2,J3,J4,J5,JA,JB,JC,JD,JJ,JK,JN,#
2014-03-09 00:00:11,0.15,7.86,0.00,20.46,25.90,28.87,6.12,31.88,1032.74,2042.05,1462.80,1810.37,1965.69,348.46,330.74,26.22,0000 0000 0000 0000 000000
2014-03-09 00:01:11,0.47,7.86,0.00,20.47,25.90,28.88,6.09,31.96,1032.73,2042.03,1462.34,1810.14,1965.30,349.22,331.00,26.23,0000 0000 0000 0000 000000
2014-03-09 00:02:11,0.44,7.86,0.00,20.47,25.90,28.86,6.21,31.75,1032.75,2042.02,1462.12,1810.05,1965.12,350.18,331.63,26.23,0000 0000 0000 0000 000000
2014-03-09 00:03:12,0.20,7.86,0.00,20.47,25.90,28.87,6.32,32.04,1032.75,2042.01,1462.03,1809.98,1965.04,349.98,332.18,26.24,0000 0000 0000 0000 000000
2014-03-09 00:04:12,0.09,7.86,0.00,20.48,25.90,28.87,6.11,31.92,1032.74,2042.01,1461.84,1809.85,1964.98,349.33,331.29,26.24,0000 0000 0000 0000 000000
2014-03-09 00:05:12,0.20,7.86,0.00,20.48,25.90,28.86,6.07,32.00,1032.75,2042.00,1461.45,1809.46,1964.68,349.34,331.31,26.25,0000 0000 0000 0000 000000
2014-03-09 00:06:12,0.51,7.87,0.00,20.49,25.90,28.84,6.23,31.96,1032.76,2042.00,1461.17,1809.17,1964.28,351.94,333.76,26.25,0000 0000 0000 0000 000000
2014-03-09 00:07:12,0.42,7.87,0.00,20.49,25.90,28.87,6.29,32.13,1032.75,2042.01,1461.06,1809.06,1964.10,350.39,332.34,26.26,0000 0000 0000 0000 000000
2014-03-09 00:08:12,0.18,7.87,0.00,20.49,25.90,28.88,6.19,32.04,1032.73,2042.01,1461.01,1809.02,1964.02,349.60,331.53,26.27,0000 0000 0000 0000 000000
2014-03-09 00:09:13,0.05,7.87,0.00,20.49,25.90,28.89,5.98,32.25,1032.74,2042.03,1460.82,1808.97,1964.00,348.86,330.84,26.27,0000 0000 0000 0000 000000
2014-03-09 00:10:13,0.16,7.87,0.00,20.49,25.90,28.91,6.18,32.00,1032.73,2042.02,1460.39,1808.79,1963.85,350.17,332.08,26.28,0000 0000 0000 0000 000000
2014-03-09 00:11:13,0.36,7.87,0.00,20.50,25.90,28.87,6.25,32.04,1032.74,2042.03,1460.15,1808.43,1963.45,350.14,332.04,26.28,0000 0000 0000 0000 000000
2014-03-09 00:12:13,0.48,7.88,0.00,20.51,25.90,28.88,6.09,31.88,1032.74,2042.02,1460.05,1808.17,1963.17,350.00,331.90,26.29,0000 0000 0000 0000 000000
2014-03-09 00:13:13,0.25,7.88,0.00,20.52,25.90,28.82,6.15,32.00,1032.74,2042.00,1460.00,1808.06,1963.06,350.18,332.06,26.30,0000 0000 0000 0000 000000
2014-03-09 00:14:14,0.10,7.88,0.00,20.52,25.90,28.88,6.08,32.00,1032.74,2042.00,1459.62,1808.02,1963.02,349.11,331.04,26.30,0000 0000 0000 0000 000000
2014-03-09 00:15:14,0.23,7.88,0.00,20.52,25.90,28.88,6.16,31.83,1032.73,2042.00,1459.23,1807.97,1962.90,350.41,332.27,26.31,0000 0000 0000 0000 000000
2014-03-09 00:16:14,0.25,7.88,0.00,20.52,25.90,28.86,6.28,32.13,1032.73,2042.02,1459.08,1807.66,1962.51,350.81,332.48,26.31,0000 0000 0000 0000 000000
2014-03-09 00:17:15,0.40,7.88,0.00,20.52,25.90,28.84,6.20,31.83,1032.73,2042.02,1459.02,1807.31,1962.21,349.62,331.45,26.32,0000 0000 0000 0000 000000
2014-03-09 00:18:15,0.31,7.89,0.00,20.53,25.90,28.83,6.19,32.00,1032.73,2042.03,1458.94,1807.13,1962.07,349.21,331.12,26.33,0000 0000 0000 0000 000000
2014-03-09 00:19:15,0.17,7.89,0.00,20.54,25.90,28.85,6.17,32.08,1032.73,2042.03,1458.51,1807.05,1962.02,349.91,331.77,26.33,0000 0000 0000 0000 000000
2014-03-09 00:20:15,0.30,7.89,0.00,20.54,25.90,28.84,6.13,32.04,1032.73,2042.02,1458.20,1807.01,1961.99,350.83,332.49,26.34,0000 0000 0000 0000 000000
2014-03-09 00:21:16,0.18,7.89,0.00,20.54,25.90,28.87,6.19,32.13,1032.73,2042.04,1458.07,1806.99,1961.85,348.55,330.47,26.34,0000 0000 0000 0000 000000
2014-03-09 00:22:16,0.17,7.89,0.00,20.54,25.90,28.84,6.18,32.00,1032.73,2042.05,1458.02,1806.80,1961.47,349.92,332.13,26.35,0000 0000 0000 0000 000000
2014-03-09 00:23:17,0.24,7.89,0.00,20.54,25.90,28.85,6.22,32.04,1032.73,2042.04,1457.94,1806.37,1961.18,349.56,331.64,26.35,0000 0000 0000 0000 000000
2014-03-09 00:24:17,0.32,7.89,0.00,20.54,25.90,28.86,6.11,32.00,1032.73,2042.01,1457.53,1806.15,1961.06,350.08,331.69,26.36,0000 0000 0000 0000 000000
2014-03-09 00:25:17,0.35,7.90,0.00,20.55,25.90,28.88,6.02,31.92,1032.73,2042.01,1457.19,1806.05,1960.99,348.10,330.21,26.37,0000 0000 0000 0000 000000
2014-03-09 00:26:17,0.25,7.90,0.00,20.56,25.90,28.86,6.20,32.33,1032.73,2042.02,1457.07,1806.01,1960.88,349.03,330.69,26.37,0000 0000 0000 0000 000000
2014-03-09 00:27:17,0.13,7.90,0.00,20.57,25.90,28.86,6.12,32.21,1032.73,2042.02,1457.00,1805.95,1960.43,349.72,331.42,26.38,0000 0000 0000 0000 000000
2014-03-09 00:28:17,0.22,7.90,0.00,20.57,25.91,28.91,6.23,32.04,1032.73,2042.02,1456.75,1805.61,1960.17,350.97,332.60,26.38,0000 0000 0000 0000 000000
2014-03-09 00:29:18,0.41,7.90,0.00,20.57,25.91,28.91,6.09,32.33,1032.73,2042.03,1456.30,1805.28,1960.06,349.12,331.51,26.39,0000 0000 0000 0000 000000
2014-03-09 00:30:18,0.45,7.90,0.00,20.57,25.91,28.90,6.19,32.17,1032.72,2042.02,1456.11,1805.11,1960.02,349.65,331.48,26.40,0000 0000 0000 0000 000000
2014-03-09 00:31:18,0.19,7.91,0.00,20.59,25.92,28.89,6.20,32.38,1032.72,2042.01,1456.03,1805.03,1959.98,350.09,331.88,26.40,0000 0000 0000 0000 000000
2014-03-09 00:32:18,0.07,7.91,0.00,20.59,25.92,28.89,6.24,32.04,1032.72,2042.00,1455.98,1804.99,1959.64,349.91,331.86,26.41,0000 0000 0000 0000 000000
2014-03-09 00:33:18,0.16,7.91,0.00,20.60,25.92,28.91,6.27,32.00,1032.72,2042.02,1455.68,1804.89,1959.28,350.14,331.75,26.41,0000 0000 0000 0000 000000
2014-03-09 00:34:18,0.32,7.91,0.00,20.59,25.92,28.89,6.15,32.04,1032.73,2042.04,1455.28,1804.60,1959.10,349.64,331.45,26.42,0000 0000 0000 0000 000000
2014-03-09 00:35:19,0.46,7.91,0.00,20.60,25.92,28.89,6.33,32.33,1032.72,2042.04,1455.11,1804.27,1959.03,351.13,332.57,26.42,0000 0000 0000 0000 000000
2014-03-09 00:36:19,0.29,7.91,0.00,20.59,25.92,28.89,6.18,32.08,1032.73,2042.01,1455.02,1804.10,1958.99,349.83,331.86,26.43,0000 0000 0000 0000 000000
2014-03-09 00:37:19,0.13,7.91,0.00,20.61,25.92,28.93,6.33,32.13,1032.73,2042.01,1454.84,1804.02,1958.70,351.27,332.98,26.44,0000 0000 0000 0000 000000
2014-03-09 00:38:20,0.22,7.92,0.00,20.60,25.92,28.91,6.18,31.92,1032.70,2042.02,1454.42,1803.98,1958.32,350.28,332.31,26.44,0000 0000 0000 0000 000000
2014-03-09 00:39:20,0.35,7.92,0.00,20.59,25.92,28.90,6.14,32.04,1032.72,2042.02,1454.26,1803.94,1958.12,349.18,331.48,26.45,0000 0000 0000 0000 000000
2014-03-09 00:40:20,0.21,7.92,0.00,20.60,25.92,28.95,6.22,32.00,1032.73,2042.00,1454.16,1803.70,1958.04,350.31,332.08,26.45,0000 0000 0000 0000 000000
2014-03-09 00:41:21,0.15,7.92,0.00,20.60,25.92,28.96,6.16,31.96,1032.71,2042.01,1454.05,1803.30,1958.00,349.60,331.36,26.46,0000 0000 0000 0000 000000
2014-03-09 00:42:21,0.29,7.92,0.00,20.60,25.93,28.94,6.20,31.88,1032.72,2042.01,1453.92,1803.11,1957.76,350.05,331.86,26.47,0000 0000 0000 0000 000000
2014-03-09 00:43:21,0.25,7.92,0.00,20.61,25.93,28.88,6.27,31.96,1032.71,2042.00,1453.45,1803.03,1957.39,349.96,331.93,26.47,0000 0000 0000 0000 000000
2014-03-09 00:44:21,0.40,7.93,0.00,20.62,25.94,28.91,6.21,32.00,1032.71,2042.00,1453.16,1802.97,1957.15,350.55,332.32,26.48,0000 0000 0000 0000 000000
2014-03-09 00:45:21,0.27,7.93,0.00,20.62,25.95,28.92,6.23,31.92,1032.66,2042.00,1453.05,1802.68,1957.05,349.67,331.11,26.48,0000 0000 0000 0000 000000
2014-03-09 00:46:22,0.24,7.93,0.00,20.63,25.95,28.91,6.21,32.29,1032.65,2042.00,1452.83,1802.27,1957.01,349.82,331.67,26.49,0000 0000 0000 0000 000000
2014-03-09 00:47:22,0.36,7.93,0.00,20.63,25.95,28.94,6.15,32.00,1032.65,2042.00,1452.42,1802.09,1956.76,350.11,331.89,26.49,0000 0000 0000 0000 000000
2014-03-09 00:48:22,0.36,7.93,0.00,20.64,25.95,28.92,6.17,31.92,1032.64,2042.00,1452.16,1802.03,1956.38,350.55,332.00,26.50,0000 0000 0000 0000 000000
2014-03-09 00:49:22,0.30,7.93,0.00,20.64,25.95,28.90,6.12,31.92,1032.66,2042.00,1452.05,1801.98,1956.14,349.80,331.52,26.51,0000 0000 0000 0000 000000
2014-03-09 00:50:23,0.16,7.94,0.00,20.64,25.95,28.92,6.10,32.17,1032.60,2042.00,1451.98,1801.81,1956.05,348.48,330.26,26.51,0000 0000 0000 0000 000000
2014-03-09 00:51:23,0.13,7.94,0.00,20.64,25.95,28.93,6.09,32.25,1032.63,2042.01,1451.73,1801.48,1956.02,349.12,330.88,26.52,0000 0000 0000 0000 000000
2014-03-09 00:52:23,0.35,7.94,0.00,20.67,25.95,28.95,6.20,32.13,1032.62,2042.00,1451.36,1801.23,1955.96,350.32,331.99,26.52,0000 0000 0000 0000 000000
2014-03-09 00:53:23,0.34,7.94,0.00,20.67,25.95,28.95,6.24,32.17,1032.48,2042.01,1451.22,1801.08,1955.83,350.04,331.67,26.53,0000 0000 0000 0000 000000
2014-03-09 00:54:23,0.22,7.94,0.00,20.67,25.96,28.93,6.26,31.83,1032.43,2042.00,1451.40,1801.02,1955.54,350.67,332.25,26.54,0000 0000 0000 0000 000000
2014-03-09 00:55:24,-0.01,7.94,0.00,20.68,25.97,28.97,6.11,32.08,1032.38,2042.00,1451.19,1801.00,1955.22,349.04,330.36,26.54,0000 0000 0000 0000 000000
2014-03-09 00:56:24,0.24,7.94,0.00,20.68,25.97,28.95,6.16,31.71,1032.36,2042.00,1451.00,1800.90,1955.05,350.29,331.32,26.55,0000 0000 0000 0000 000000
2014-03-09 00:57:24,0.22,7.94,0.00,20.69,25.97,28.96,6.13,32.08,1032.31,2042.00,1450.53,1800.51,1954.97,349.43,331.02,26.55,0000 0000 0000 0000 000000
2014-03-09 00:58:25,0.46,7.95,0.00,20.68,25.97,28.96,6.37,32.00,1032.29,2042.00,1450.20,1800.20,1954.76,351.30,332.86,26.56,0000 0000 0000 0000 000000
2014-03-09 00:59:25,0.41,7.95,0.00,20.69,25.97,28.94,6.19,32.33,1032.28,2042.00,1450.07,1800.07,1954.32,350.98,332.29,26.57,0000 0000 0000 0000 000000
2014-03-09 01:00:25,0.26,7.95,0.00,20.69,25.97,28.91,6.03,31.92,1032.30,2042.00,1450.02,1800.02,1954.14,349.77,331.33,26.57,0000 0000 0000 0000 000000
2014-03-09 01:01:25,0.10,7.95,0.00,20.69,25.97,28.94,6.23,32.13,1032.30,2042.00,1450.00,1800.00,1954.06,349.72,331.71,26.58,0000 0000 0000 0000 000000
2014-03-09 01:02:26,0.03,7.95,0.00,20.70,25.97,28.93,6.20,31.83,1032.27,2042.00,1450.00,1799.99,1954.01,349.70,330.76,26.58,0000 0000 0000 0000 000000
2014-03-09 01:03:26,0.03,7.95,0.00,20.70,25.97,28.92,6.12,32.17,1032.27,2042.00,1449.96,1799.88,1953.92,349.56,331.11,26.59,0000 0000 0000 0000 000000
2014-03-09 01:04:26,0.18,7.95,0.00,20.70,25.99,28.96,6.13,32.00,1032.27,2042.00,1449.71,1799.43,1953.54,349.01,330.61,26.59,0000 0000 0000 0000 000000
2014-03-09 01:05:27,0.47,7.96,0.00,20.71,25.99,28.95,6.13,32.00,1032.27,2042.00,1449.34,1799.16,1953.22,350.19,331.16,26.60,0000 0000 0000 0000 000000
2014-03-09 01:06:27,0.41,7.96,0.00,20.72,26.00,28.95,6.17,32.04,1032.29,2042.00,1449.12,1799.06,1953.08,349.81,331.34,26.61,0000 0000 0000 0000 000000
2014-03-09 01:07:27,0.21,7.96,0.00,20.73,26.00,28.92,6.29,32.13,1032.28,2042.00,1448.95,1798.99,1953.02,350.45,331.96,26.61,0000 0000 0000 0000 000000
2014-03-09 01:08:28,0.18,7.96,0.00,20.74,26.00,28.94,6.18,31.92,1032.28,2041.99,1448.49,1798.82,1952.91,349.45,330.96,26.62,0000 0000 0000 0000 000000
2014-03-09 01:09:28,0.38,7.96,0.00,20.74,26.00,28.97,6.18,32.17,1032.28,2041.99,1448.18,1798.44,1952.43,349.67,331.18,26.62,0000 0000 0000 0000 000000
2014-03-09 01:10:28,0.49,7.97,0.00,20.75,26.00,28.99,6.20,31.83,1032.30,2041.99,1448.04,1798.18,1952.16,350.17,331.80,26.63,0000 0000 0000 0000 000000
2014-03-09 01:11:28,0.33,7.97,0.00,20.76,26.00,28.97,6.14,32.04,1032.27,2041.99,1447.68,1798.06,1952.05,349.67,330.41,26.64,0000 0000 0000 0000 000000
2014-03-09 01:12:29,0.28,7.97,0.00,20.77,26.01,28.99,6.13,32.04,1032.28,2041.99,1447.27,1798.01,1952.01,349.25,330.65,26.64,0000 0000 0000 0000 000000
2014-03-09 01:13:29,0.25,7.97,0.00,20.77,26.01,28.98,6.11,32.13,1032.27,2041.98,1447.11,1797.87,1951.93,348.60,330.13,26.65,0000 0000 0000 0000 000000
2014-03-09 01:14:29,0.22,7.97,0.00,20.77,26.02,28.96,6.17,31.96,1032.25,2041.98,1447.03,1797.45,1951.59,350.22,331.74,26.65,0000 0000 0000 0000 000000
2014-03-09 01:15:30,0.36,7.97,0.00,20.77,26.02,28.94,6.03,31.92,1032.26,2041.99,1446.85,1797.16,1951.24,349.14,330.97,26.66,0000 0000 0000 0000 000000
2014-03-09 01:16:30,0.39,7.98,0.00,20.78,26.02,28.93,6.19,31.96,1032.25,2041.99,1446.42,1797.06,1951.08,350.10,331.43,26.66,0000 0000 0000 0000 000000
2014-03-09 01:17:30,0.31,7.98,0.00,20.79,26.02,28.96,6.15,32.13,1032.27,2041.98,1446.16,1797.02,1951.02,350.02,331.12,26.67,0000 0000 0000 0000 000000
2014-03-09 01:18:30,0.18,7.98,0.00,20.79,26.02,29.00,6.20,32.08,1032.26,2041.98,1446.05,1797.00,1950.94,349.62,331.07,26.68,0000 0000 0000 0000 000000
2014-03-09 01:19:31,0.09,7.98,0.00,20.79,26.02,28.97,6.13,32.08,1032.26,2041.98,1446.00,1796.86,1950.58,349.72,331.32,26.68,0000 0000 0000 0000 000000
2014-03-09 01:20:31,0.22,7.98,0.00,20.79,26.03,28.97,6.17,31.88,1032.25,2041.98,1445.69,1796.45,1950.24,350.44,332.11,26.69,0000 0000 0000 0000 000000
2014-03-09 01:21:31,0.45,7.98,0.00,20.80,26.04,28.98,6.17,31.83,1032.25,2041.98,1445.27,1796.19,1950.08,350.38,332.15,26.69,0000 0000 0000 0000 000000
2014-03-09 01:22:31,0.41,7.99,0.00,20.82,26.05,28.98,6.07,32.00,1032.24,2041.97,1445.09,1796.06,1950.02,349.74,331.14,26.70,0000 0000 0000 0000 000000
2014-03-09 01:23:32,0.18,7.99,0.00,20.82,26.05,28.99,6.09,31.92,1032.24,2041.98,1445.02,1796.00,1949.93,349.54,330.95,26.71,0000 0000 0000 0000 000000
2014-03-09 01:24:32,0.11,7.99,0.00,20.82,26.05,28.99,6.12,32.04,1032.24,2041.97,1444.97,1795.94,1949.68,349.06,330.49,26.71,0000 0000 0000 0000 000000
2014-03-09 01:25:32,0.18,7.99,0.00,20.84,26.05,29.00,6.03,32.08,1032.25,2041.96,1444.63,1795.66,1949.28,349.41,330.36,26.72,0000 0000 0000 0000 000000
2014-03-09 01:26:32,0.38,7.99,0.00,20.84,26.05,28.97,6.25,32.33,1032.24,2041.96,1444.26,1795.31,1949.11,349.92,331.28,26.72,0000 0000 0000 0000 000000
2014-03-09 01:27:33,0.44,7.99,0.00,20.85,26.05,28.98,6.17,32.00,1032.24,2041.97,1444.12,1795.12,1949.04,349.99,331.34,26.73,0000 0000 0000 0000 000000
2014-03-09 01:28:33,0.22,8.00,0.00,20.85,26.07,28.98,6.20,32.08,1032.24,2041.97,1444.04,1795.04,1948.98,349.69,331.07,26.74,0000 0000 0000 0000 000000
2014-03-09 01:29:33,0.13,8.00,0.00,20.85,26.07,28.98,6.20,32.29,1032.24,2041.97,1443.94,1794.98,1948.66,350.23,331.57,26.74,0000 0000 0000 0000 000000
2014-03-09 01:30:33,0.19,8.00,0.00,20.85,26.07,29.02,6.14,32.29,1032.24,2041.93,1443.50,1794.86,1948.26,349.54,330.92,26.75,0000 0000 0000 0000 000000
2014-03-09 01:31:34,0.36,8.00,0.00,20.86,26.07,28.99,6.18,32.17,1032.25,2041.88,1443.21,1794.42,1948.10,349.75,331.10,26.75,0000 0000 0000 0000 000000
2014-03-09 01:32:34,0.39,8.00,0.00,20.87,26.07,29.00,6.17,31.83,1032.25,2041.88,1443.07,1794.16,1948.03,350.29,332.11,26.76,0000 0000 0000 0000 000000
2014-03-09 01:33:34,0.25,8.00,0.00,20.88,26.07,29.00,6.13,31.88,1032.24,2041.93,1443.00,1794.05,1947.98,349.82,331.15,26.76,0000 0000 0000 0000 000000
2014-03-09 01:34:35,0.18,8.00,0.00,20.89,26.08,29.00,6.13,32.21,1032.24,2041.92,1442.88,1794.01,1947.79,349.60,330.93,26.77,0000 0000 0000 0000 000000
2014-03-09 01:35:35,0.13,8.01,0.00,20.89,26.10,28.98,6.28,31.88,1032.24,2041.87,1442.51,1793.98,1947.41,350.32,331.81,26.78,0000 0000 0000 0000 000000
2014-03-09 01:36:35,0.29,8.01,0.00,20.90,26.10,29.00,6.18,31.88,1032.24,2041.87,1442.19,1793.75,1947.16,349.73,331.04,26.78,0000 0000 0000 0000 000000
2014-03-09 01:37:35,0.35,8.01,0.00,20.90,26.10,29.01,6.11,32.00,1032.24,2041.64,1442.07,1793.34,1947.05,349.66,331.15,26.79,0000 0000 0000 0000 000000
2014-03-09 01:38:36,0.07,8.01,0.00,20.90,26.10,29.00,6.13,32.00,1032.24,2041.47,1441.99,1793.13,1946.96,350.14,332.04,26.79,0000 0000 0000 0000 000000
2014-03-09 01:39:36,0.08,8.01,0.00,20.92,26.10,28.99,6.15,32.00,1032.24,2041.55,1441.66,1793.05,1946.74,349.60,330.73,26.80,0000 0000 0000 0000 000000
2014-03-09 01:40:36,0.35,8.01,0.00,20.93,26.11,29.00,6.07,32.00,1032.24,2041.58,1441.31,1792.99,1946.35,349.47,330.64,26.81,0000 0000 0000 0000 000000
2014-03-09 01:41:37,0.26,8.01,0.00,20.94,26.12,29.02,6.26,32.04,1032.24,2041.47,1441.12,1792.97,1946.13,349.84,331.19,26.81,0000 0000 0000 0000 000000
2014-03-09 01:42:37,0.14,8.01,0.00,20.94,26.12,29.00,6.29,32.21,1032.24,2041.44,1441.04,1792.72,1946.04,350.48,331.69,26.82,0000 0000 0000 0000 000000
2014-03-09 01:43:37,0.14,8.02,0.00,20.94,26.12,29.02,6.25,31.92,1032.24,2041.29,1440.98,1792.31,1946.00,350.14,331.01,26.82,0000 0000 0000 0000 000000
2014-03-09 01:44:38,0.13,8.02,0.00,20.95,26.12,29.03,6.19,32.00,1032.24,2041.31,1440.73,1792.11,1945.84,350.27,331.49,26.83,0000 0000 0000 0000 000000
2014-03-09 01:45:38,0.29,8.02,0.00,20.96,26.12,29.00,6.31,32.13,1032.24,2041.37,1440.44,1792.04,1945.51,350.12,331.33,26.83,0000 0000 0000 0000 000000
2014-03-09 01:46:38,0.35,8.02,0.00,20.97,26.14,29.00,6.13,31.92,1032.24,2041.25,1440.18,1792.01,1945.23,349.43,330.99,26.84,0000 0000 0000 0000 000000
2014-03-09 01:47:38,0.16,8.02,0.00,20.97,26.14,29.05,6.24,32.38,1032.24,2041.28,1440.07,1791.98,1945.09,350.68,331.94,26.85,0000 0000 0000 0000 000000
2014-03-09 01:48:39,0.06,8.02,0.00,20.97,26.15,29.04,6.23,32.25,1032.25,2041.20,1440.02,1791.86,1945.02,349.95,331.25,26.85,0000 0000 0000 0000 000000
2014-03-09 01:49:39,0.10,8.02,0.00,20.98,26.15,29.04,6.19,32.33,1032.25,2041.14,1439.91,1791.43,1944.97,350.15,331.35,26.86,0000 0000 0000 0000 000000
2014-03-09 01:50:39,0.25,8.02,0.00,20.99,26.15,29.02,6.14,32.08,1032.25,2041.12,1439.46,1791.18,1944.56,349.58,330.79,26.86,0000 0000 0000 0000 000000
2014-03-09 01:51:39,0.41,8.03,0.00,21.00,26.15,29.04,6.15,31.71,1032.24,2041.10,1439.17,1791.06,1944.22,350.24,331.42,26.87,0000 0000 0000 0000 000000
2014-03-09 01:52:40,0.33,8.03,0.00,21.01,26.17,29.00,6.14,32.13,1032.25,2041.08,1438.97,1791.00,1944.08,349.82,331.16,26.88,0000 0000 0000 0000 000000
2014-03-09 01:53:40,0.17,8.03,0.00,21.03,26.17,29.02,6.34,32.00,1032.24,2041.04,1438.52,1790.83,1944.02,351.01,331.85,26.88,0000 0000 0000 0000 000000
2014-03-09 01:54:40,0.30,8.03,0.00,21.04,26.17,29.02,6.01,31.75,1032.24,2041.02,1438.19,1790.42,1943.94,348.58,330.63,26.89,0000 0000 0000 0000 000000
2014-03-09 01:55:40,0.41,8.03,0.00,21.04,26.17,29.03,6.14,31.92,1032.24,2041.03,1438.07,1790.16,1943.58,350.13,331.26,26.89,0000 0000 0000 0000 000000
2014-03-09 01:56:41,0.32,8.03,0.00,21.04,26.18,29.04,6.14,31.88,1032.24,2041.04,1438.02,1790.05,1943.25,350.46,331.57,26.90,0000 0000 0000 0000 000000
2014-03-09 01:57:41,0.19,8.04,0.00,21.06,26.19,29.05,6.23,32.00,1032.24,2041.03,1437.93,1790.01,1943.10,349.58,330.96,26.91,0000 0000 0000 0000 000000
2014-03-09 01:58:41,0.14,8.04,0.00,21.07,26.20,29.02,6.21,31.96,1032.24,2041.01,1437.58,1789.98,1943.03,350.13,331.40,26.91,0000 0000 0000 0000 000000
2014-03-09 01:59:42,0.21,8.04,0.00,21.09,26.20,29.02,6.12,32.04,1032.24,2041.02,1437.22,1789.81,1942.98,349.22,330.67,26.92,0000 0000 0000 0000 000000
2014-03-09 02:00:42,0.33,8.04,0.00,21.09,26.20,29.04,6.22,32.13,1032.24,2041.01,1437.08,1789.37,1942.57,351.00,332.02,26.92,0000 0000 0000 0000 000000
2014-03-09 02:01:42,0.40,8.04,0.00,21.08,26.20,29.01,6.14,32.00,1032.24,2041.01,1437.00,1789.15,1942.22,349.93,330.76,26.93,0000 0000 0000 0000 000000
2014-03-09 02:02:42,0.28,8.04,0.00,21.08,26.21,29.06,6.07,31.88,1032.24,2041.00,1436.79,1789.05,1942.08,349.95,331.25,26.93,0000 0000 0000 0000 000000
2014-03-09 02:03:43,0.23,8.04,0.00,21.09,26.22,29.09,6.23,31.88,1032.24,2041.00,1436.35,1788.99,1942.02,350.41,331.47,26.94,0000 0000 0000 0000 000000
2014-03-09 02:04:43,0.26,8.05,0.00,21.09,26.22,29.09,6.23,32.08,1032.23,2041.00,1436.13,1788.89,1941.94,349.97,331.04,26.95,0000 0000 0000 0000 000000
2014-03-09 02:05:43,0.25,8.05,0.00,21.11,26.22,29.06,5.96,31.92,1032.23,2041.00,1436.04,1788.51,1941.61,349.34,330.43,26.95,0000 0000 0000 0000 000000
2014-03-09 02:06:43,0.31,8.05,0.00,21.12,26.22,29.10,6.08,32.00,1032.24,2041.00,1436.00,1788.21,1941.27,349.88,330.94,26.96,0000 0000 0000 0000 000000
2014-03-09 02:07:44,0.30,8.05,0.00,21.12,26.23,29.08,6.06,31.83,1032.24,2041.00,1435.66,1788.08,1941.09,349.16,330.25,26.96,0000 0000 0000 0000 000000
2014-03-09 02:08:44,0.30,8.06,0.00,21.13,26.25,29.07,6.14,32.21,1032.24,2041.00,1435.29,1788.02,1941.02,348.85,329.95,26.97,0000 0000 0000 0000 000000
2014-03-09 02:09:44,0.26,8.06,0.00,21.14,26.25,29.07,6.06,32.04,1032.24,2041.00,1435.11,1787.98,1940.96,349.63,330.94,26.98,0000 0000 0000 0000 000000
2014-03-09 02:10:44,0.16,8.06,0.00,21.15,26.25,29.08,6.02,31.88,1032.24,2041.00,1435.03,1787.71,1940.56,349.41,330.46,26.98,0000 0000 0000 0000 000000
2014-03-09 02:11:45,0.28,8.06,0.00,21.17,26.25,29.08,6.17,31.96,1032.24,2041.00,1434.92,1787.30,1940.23,350.22,330.66,26.99,0000 0000 0000 0000 000000
2014-03-09 02:12:45,0.39,8.06,0.00,21.17,26.25,29.06,6.08,32.04,1032.24,2041.00,1434.52,1787.12,1940.08,348.52,329.71,26.99,0000 0000 0000 0000 000000
2014-03-09 02:13:45,0.35,8.06,0.00,21.17,26.27,29.04,6.12,32.00,1032.24,2041.00,1434.20,1787.04,1940.03,350.11,331.09,27.00,0000 0000 0000 0000 000000
2014-03-09 02:14:46,0.21,8.06,0.00,21.18,26.27,29.13,6.06,31.92,1032.24,2041.00,1434.07,1787.00,1939.96,349.53,330.53,27.00,0000 0000 0000 0000 000000
2014-03-09 02:15:46,0.11,8.07,0.00,21.20,26.27,29.11,6.19,32.04,1032.24,2041.00,1434.01,1786.89,1939.65,349.56,330.92,27.01,0000 0000 0000 0000 000000
2014-03-09 02:16:46,0.23,8.07,0.00,21.21,26.27,29.09,6.27,32.00,1032.24,2041.00,1433.82,1786.52,1939.27,350.89,331.78,27.02,0000 0000 0000 0000 000000
2014-03-09 02:17:46,0.43,8.07,0.00,21.22,26.29,29.09,6.30,32.13,1032.24,2041.00,1433.42,1786.23,1939.10,349.70,330.70,27.02,0000 0000 0000 0000 000000
2014-03-09 02:18:46,0.40,8.07,0.00,21.22,26.30,29.11,5.94,31.88,1032.24,2040.99,1433.15,1786.09,1939.03,350.12,331.00,27.03,0000 0000 0000 0000 000000
2014-03-09 02:19:47,0.22,8.07,0.00,21.23,26.30,29.08,6.03,32.13,1032.24,2040.99,1433.06,1786.03,1938.97,349.80,330.74,27.03,0000 0000 0000 0000 000000
2014-03-09 02:20:47,0.10,8.07,0.00,21.24,26.30,29.07,6.07,31.83,1032.24,2040.99,1432.97,1785.97,1938.65,349.86,330.98,27.04,0000 0000 0000 0000 000000
2014-03-09 02:21:47,0.19,8.07,0.00,21.25,26.30,29.03,6.21,32.13,1032.24,2040.98,1432.61,1785.65,1938.26,350.51,331.39,27.05,0000 0000 0000 0000 000000
2014-03-09 02:22:48,0.49,8.08,0.00,21.26,26.31,29.03,6.14,31.79,1032.24,2040.98,1432.23,1785.28,1938.09,350.07,330.46,27.05,0000 0000 0000 0000 000000
2014-03-09 02:23:48,0.44,8.08,0.00,21.26,26.32,29.03,6.19,31.79,1032.23,2040.99,1432.08,1785.10,1938.01,350.73,331.59,27.06,0000 0000 0000 0000 000000
2014-03-09 02:24:48,0.22,8.08,0.00,21.28,26.32,29.06,6.12,32.00,1032.22,2040.99,1432.02,1785.03,1937.89,349.91,330.78,27.06,0000 0000 0000 0000 000000
2014-03-09 02:25:48,0.09,8.08,0.00,21.29,26.32,29.09,6.27,32.08,1032.23,2040.97,1431.92,1784.98,1937.58,350.52,331.47,27.07,0000 0000 0000 0000 000000
2014-03-09 02:26:48,0.19,8.08,0.00,21.29,26.33,29.06,6.01,31.92,1032.22,2040.97,1431.48,1784.85,1937.27,349.71,330.52,27.08,0000 0000 0000 0000 000000
2014-03-09 02:27:49,0.41,8.09,0.00,21.29,26.34,29.10,6.10,32.08,1032.21,2040.97,1431.25,1784.54,1937.10,349.46,330.33,27.08,0000 0000 0000 0000 000000
2014-03-09 02:28:49,0.30,8.09,0.00,21.30,26.35,29.10,6.17,32.00,1032.19,2040.97,1431.17,1784.23,1937.04,350.07,330.75,27.09,0000 0000 0000 0000 000000
2014-03-09 02:29:49,0.24,8.09,0.00,21.32,26.35,29.07,6.27,32.29,1032.15,2040.93,1431.06,1784.08,1936.98,350.58,331.35,27.09,0000 0000 0000 0000 000000
2014-03-09 02:30:49,0.11,8.09,0.00,21.32,26.35,29.13,6.06,32.25,1032.14,2040.87,1430.84,1784.01,1936.58,348.67,329.53,27.10,0000 0000 0000 0000 000000
2014-03-09 02:31:50,0.25,8.09,0.00,21.33,26.36,29.11,6.09,32.25,1032.08,2040.77,1430.35,1783.93,1936.23,350.00,330.89,27.10,0000 0000 0000 0000 000000
2014-03-09 02:32:50,0.31,8.09,0.00,21.34,26.37,29.11,6.13,32.04,1032.02,2040.77,1430.14,1783.68,1936.08,349.90,330.44,27.11,0000 0000 0000 0000 000000
2014-03-09 02:33:50,0.29,8.09,0.00,21.34,26.37,29.11,6.18,31.96,1032.04,2040.73,1430.05,1783.29,1936.02,350.73,331.38,27.12,0000 0000 0000 0000 000000
2014-03-09 02:34:50,0.19,8.10,0.00,21.37,26.37,29.12,6.13,31.88,1032.08,2040.61,1429.99,1783.11,1935.97,350.45,331.15,27.12,0000 0000 0000 0000 000000
2014-03-09 02:35:51,0.03,8.10,0.00,21.37,26.39,29.12,6.22,32.00,1032.08,2040.58,1429.81,1783.04,1935.70,350.56,331.24,27.13,0000 0000 0000 0000 000000